Location: Newark
(45.5000°N, 11.4167°E)
Time: 05:37:10
(UTC+00:00)

Altair - Pass Details

Date: 27 August 2019
Orbit: 1501 x 1683 km, 47.2° (Epoch: 21 September)

Event Time Altitude Azimuth Distance (km) Brightness Sun altitude
Exits shadow 03:16:44 12° 264° (W) 3,701 8.9 -12.5°
Maximum altitude 03:26:06 83° 352° (N) 1,594 7.6 -11.1°
Drops below altitude 10° 03:35:34 10° 81° (E) 3,713 10.9 -9.6°
Sets 03:38:34 0° 83° (E) 4,677 11.7 -9.1°
